Weather History for Houlton, ME

Change the Weather History Date:

Saturday, September 22, 2012

  Actual Average Record
Temperature  
Mean Temperature 65 °F 52 °F  
Max Temperature 76 °F 64 °F 88 °F (1965)
Min Temperature 54 °F 41 °F 22 °F (1950)
Degree Days  
Heating Degree Days 0 13  
Month to date heating degree days 155 196  
Since 1 July heating degree days 207 352  
Cooling Degree Days 0 0  
Month to date cooling degree days 9 12  
Year to date cooling degree days 277 190  
Growing Degree Days 13 (Base 50)    
Moisture  
Dew Point 59 °F    
Average Humidity 84    
Maximum Humidity 100    
Minimum Humidity 68    
Precipitation  
Precipitation 0.09 in 0.12 in 1.11 in (1999)
Month to date precipitation 2.44 2.42  
Year to date precipitation 30.95 28.04  
Sea Level Pressure  
Sea Level Pressure 29.96 in    
Wind  
Wind Speed 5 mph (SE)    
Max Wind Speed 16 mph    
Max Gust Speed 23 mph    
Visibility 5 miles    
Events Fog , Rain    
T = Trace of Precipitation, MM = Missing Value Source: NWS Daily Summary

Daily Weather History Graph

Daily Weather History Graph

Search for Another Location

Airport:

Trip Planner

Search our weather history database for the weather conditions in past years. The results will help you decide how hot, cold, wet, or windy it might be!

Date:

Astronomy

Sep. 22, 2012 Rise Set
Actual Time 6:18 AM EDT 6:27 PM EDT
Civil Twilight 5:48 AM EDT 6:57 PM EDT
Nautical Twilight 5:13 AM EDT 7:32 PM EDT
Astronomical Twilight 4:37 AM EDT 8:08 PM EDT
Moon 1:53 PM EDT (9/22) 11:09 PM EDT (9/22)
Length of Visible Light 13h 08m
Length of Day
12h 09m
Waxing Crescent, 48% of the Moon is Illuminated
Sep 22
Waxing Crescent
Sep 22
First Quarter
Sep 29
Full
Oct 8
Last Quarter
Oct 15
New

Hourly Weather History & Observations

Time (EDT) Temp. Dew Point Humidity Pressure Visibility Wind Dir Wind Speed Gust Speed Precip Events Conditions
12:21 AM 53.6 °F 51.8 °F 94% 30.09 in 10.0 mi Calm Calm - N/A   Mostly Cloudy
12:53 AM 54.0 °F 53.1 °F 97% 30.09 in 10.0 mi Calm Calm - N/A   Overcast
1:53 AM 55.0 °F 53.1 °F 93% 30.09 in 10.0 mi Calm Calm - 0.00 in   Overcast
2:09 AM 55.4 °F 53.6 °F 94% 30.08 in 9.0 mi Calm Calm - 0.00 in Rain Light Rain
2:53 AM 55.0 °F 53.1 °F 93% 30.06 in 10.0 mi Calm Calm - 0.01 in Rain Light Rain
3:03 AM 55.4 °F 53.6 °F 94% 30.06 in 10.0 mi Calm Calm - 0.00 in Rain Light Rain
3:24 AM 55.4 °F 53.6 °F 94% 30.06 in 10.0 mi Calm Calm - 0.00 in   Overcast
3:36 AM 55.4 °F 53.6 °F 94% 30.05 in 10.0 mi Calm Calm - 0.00 in   Overcast
3:53 AM 55.0 °F 53.1 °F 93% 30.06 in 10.0 mi Calm Calm - 0.00 in   Overcast
4:08 AM 55.4 °F 53.6 °F 94% 30.05 in 7.0 mi Calm Calm - N/A   Overcast
4:24 AM 53.6 °F 53.6 °F 100% 30.05 in 1.8 mi Calm Calm - N/A   Overcast
4:33 AM 53.6 °F 53.6 °F 100% 30.05 in 1.0 mi Calm Calm - N/A   Mist
4:41 AM 53.6 °F 53.6 °F 100% 30.04 in 0.8 mi Calm Calm - N/A   Mist
4:53 AM 55.0 °F 54.0 °F 96% 30.05 in 1.0 mi Calm Calm - N/A   Mist
4:59 AM 55.4 °F 53.6 °F 94% 30.04 in 2.0 mi East 3.5 mph - N/A   Overcast
5:19 AM 55.4 °F 53.6 °F 94% 30.04 in 1.8 mi ENE 3.5 mph - N/A   Overcast
5:34 AM 55.4 °F 53.6 °F 94% 30.03 in 1.0 mi Calm Calm - N/A   Overcast
5:43 AM 55.4 °F 53.6 °F 94% 30.03 in 0.8 mi Calm Calm - N/A   Mist
5:53 AM 55.9 °F 55.0 °F 97% 30.03 in 1.0 mi Calm Calm - N/A   Mist
6:51 AM 55.4 °F 55.4 °F 100% 30.03 in 1.8 mi Calm Calm - 0.01 in   Overcast
6:53 AM 55.9 °F 55.0 °F 97% 30.04 in 2.0 mi Calm Calm - 0.01 in   Overcast
7:03 AM 55.4 °F 55.4 °F 100% 30.02 in 1.0 mi NNE 3.5 mph - N/A   Mist
7:11 AM 55.4 °F 55.4 °F 100% 30.02 in 0.2 mi North 3.5 mph - N/A Fog Fog
7:53 AM 57.0 °F 55.9 °F 96% 30.01 in 0.2 mi Calm Calm - N/A Fog Fog
8:53 AM 57.9 °F 57.0 °F 97% 30.00 in 0.2 mi NNE 3.5 mph - 0.00 in Fog Fog
9:15 AM 59.0 °F 57.2 °F 94% 29.98 in 1.5 mi East 3.5 mph - N/A   Overcast
9:23 AM 59.0 °F 57.2 °F 94% 29.98 in 2.5 mi Calm Calm - N/A   Overcast
9:53 AM 60.1 °F 59.0 °F 96% 29.98 in 3.0 mi Calm Calm - N/A   Overcast
10:00 AM 60.8 °F 59.0 °F 94% 29.98 in 1.8 mi Calm Calm - 0.00 in Rain Light Rain
10:08 AM 60.8 °F 59.0 °F 94% 29.97 in 1.0 mi Calm Calm - 0.05 in Rain Heavy Rain
10:14 AM 60.8 °F 59.0 °F 94% 29.97 in 1.5 mi Calm Calm - 0.05 in Rain Light Rain
10:17 AM 60.8 °F 59.0 °F 94% 29.97 in 2.5 mi Calm Calm - 0.05 in Rain Light Rain
10:24 AM 60.8 °F 59.0 °F 94% 29.96 in 4.0 mi Calm Calm - 0.05 in Rain Light Rain
10:53 AM 63.0 °F 61.0 °F 93% 29.96 in 3.0 mi SE 5.8 mph - 0.05 in Rain Light Rain
11:01 AM 64.4 °F 62.6 °F 94% 29.95 in 2.5 mi Variable 3.5 mph - 0.01 in Rain Light Rain
11:08 AM 64.4 °F 62.6 °F 94% 29.95 in 8.0 mi ESE 4.6 mph - 0.01 in   Overcast
11:53 AM 66.0 °F 64.0 °F 93% 29.93 in 10.0 mi SE 4.6 mph - 0.01 in   Overcast
12:38 PM 71.6 °F 64.4 °F 78% 29.91 in 10.0 mi SE 8.1 mph - N/A   Overcast
12:53 PM 70.0 °F 64.9 °F 84% 29.91 in 10.0 mi SSE 6.9 mph - N/A   Overcast
1:38 PM 71.6 °F 64.4 °F 78% 29.89 in 10.0 mi South 10.4 mph 19.6 mph N/A   Mostly Cloudy
1:53 PM 73.0 °F 63.0 °F 71% 29.88 in 10.0 mi South 6.9 mph 16.1 mph N/A   Mostly Cloudy
2:53 PM 73.9 °F 62.1 °F 66% 29.87 in 10.0 mi SSW 6.9 mph 21.9 mph N/A   Overcast
3:53 PM 73.4 °F 62.6 °F 69% 29.85 in 10.0 mi SSE 9.2 mph 18.4 mph N/A   Scattered Clouds
4:53 PM 72.0 °F 62.1 °F 71% 29.85 in 10.0 mi SSE 13.8 mph 23.0 mph N/A   Overcast
5:51 PM 66.2 °F 64.4 °F 94% 29.84 in 9.0 mi SSE 8.1 mph 17.3 mph 0.00 in   Overcast
5:53 PM 66.9 °F 64.0 °F 90% 29.84 in 9.0 mi SSE 10.4 mph 17.3 mph 0.00 in   Overcast
6:38 PM 66.2 °F 64.4 °F 94% 29.84 in 9.0 mi SSE 9.2 mph - N/A   Overcast
6:53 PM 66.9 °F 64.0 °F 90% 29.84 in 10.0 mi SSE 6.9 mph - N/A   Overcast
7:39 PM 66.2 °F 64.4 °F 94% 29.84 in 8.0 mi SSE 5.8 mph - N/A   Overcast
7:53 PM 66.0 °F 64.0 °F 93% 29.83 in 3.0 mi Variable 5.8 mph - N/A   Overcast
8:53 PM 66.9 °F 64.0 °F 90% 29.83 in 7.0 mi SSE 8.1 mph - N/A   Overcast
9:53 PM 66.0 °F 64.0 °F 93% 29.82 in 3.0 mi South 4.6 mph - N/A   Overcast
10:31 PM 66.2 °F 64.4 °F 94% 29.82 in 2.0 mi Variable 4.6 mph - N/A   Overcast
10:53 PM 66.0 °F 64.0 °F 93% 29.82 in 2.5 mi South 5.8 mph - 0.00 in   Overcast
11:04 PM 66.2 °F 64.4 °F 94% 29.82 in 3.0 mi South 5.8 mph - N/A   Overcast
11:46 PM 64.4 °F 62.6 °F 94% 29.81 in 10.0 mi Variable 5.8 mph - 0.01 in   Overcast
11:53 PM 64.9 °F 63.0 °F 93% 29.81 in 10.0 mi Variable 5.8 mph - 0.01 in   Mostly Cloudy